Change the Weather History Date:

Friday, October 18, 2013

  Actual Average (KDFW) Record (KDFW)
Temperature  
Mean Temperature 61 °F 67 °F  
Max Temperature 73 °F 78 °F 93 °F (1921)
Min Temperature 51 °F 56 °F 38 °F (1948)
Degree Days  
Heating Degree Days 4 2  
Month to date heating degree days 23  
Since 1 July heating degree days 29  
Cooling Degree Days 0 4  
Month to date cooling degree days 105  
Year to date cooling degree days 2682  
Growing Degree Days 11 (Base 50)    
Moisture  
Dew Point 52 °F    
Average Humidity 74    
Maximum Humidity 100    
Minimum Humidity 44    
Precipitation  
Precipitation 0.01 in 0.16 in 3.54 in (2002)
Month to date precipitation 2.26  
Year to date precipitation 28.92  
Snow  
Snow 0.00 in 0.00 in 0.00 in ()
Month to date snowfall 0.0  
Since 1 July snowfall 0.0  
Since 1 September snowfall 0.0  
Snow Depth -    
Sea Level Pressure  
Sea Level Pressure 29.99 in    
Wind  
Wind Speed 4 mph (SE)    
Max Wind Speed 13 mph    
Max Gust Speed 21 mph    
Visibility 10 miles    
Events Rain    
T = Trace of Precipitation, MM = Missing Value Source: NWS Daily Summary

Daily Weather History Graph

Daily Weather History Graph

Search for Another Location

Airport or City:

Trip Planner

Search our weather history database for the weather conditions in past years. The results will help you decide how hot, cold, wet, or windy it might be!

Date:

Astronomy

Oct. 18, 2013 Rise Set
Actual Time 7:31 AM CDT 6:48 PM CDT
Civil Twilight 7:06 AM CDT 7:13 PM CDT
Nautical Twilight 6:37 AM CDT 7:41 PM CDT
Astronomical Twilight 6:09 AM CDT 8:10 PM CDT
Moon 6:40 PM CDT (10/18) 7:08 AM CDT (10/18)
Length of Visible Light 12h 06m
Length of Day
11h 16m
Full, 100% of the Moon is Illuminated
Oct 18
Full
Oct 18
Full
Oct 26
Last Quarter
Nov 3
New
Nov 9
First Quarter

Hourly Weather History & Observations

Time (CDT) Temp. Dew Point Humidity Pressure Visibility Wind Dir Wind Speed Gust Speed Precip Events Conditions
12:53 AM 52.0 °F 51.1 °F 97% 30.01 in 10.0 mi NNE 3.5 mph - N/A   Clear
1:53 AM 51.1 °F 48.9 °F 92% 30.02 in 5.0 mi Calm Calm - N/A   Clear
2:53 AM 51.1 °F 50.0 °F 96% 30.02 in 10.0 mi Calm Calm - N/A   Clear
3:53 AM 51.1 °F 50.0 °F 96% 30.02 in 10.0 mi Calm Calm - N/A   Scattered Clouds
4:53 AM 52.0 °F 51.1 °F 97% 30.01 in 10.0 mi Calm Calm - N/A   Clear
5:53 AM 51.1 °F 51.1 °F 100% 30.01 in 10.0 mi NE 3.5 mph - N/A   Scattered Clouds
6:53 AM 51.1 °F 50.0 °F 96% 30.01 in 10.0 mi Calm Calm - N/A   Clear
7:53 AM 51.1 °F 50.0 °F 96% 30.02 in 10.0 mi Calm Calm - 0.01 in   Clear
8:53 AM 57.9 °F 53.1 °F 84% 30.02 in 10.0 mi ESE 5.8 mph - N/A   Clear
9:53 AM 63.0 °F 54.0 °F 72% 30.02 in 10.0 mi SE 4.6 mph - N/A   Overcast
10:53 AM 66.0 °F 53.1 °F 63% 30.03 in 10.0 mi SSE 6.9 mph - N/A   Overcast
11:53 AM 66.9 °F 50.0 °F 54% 30.01 in 10.0 mi SSE 9.2 mph - 0.00 in Rain Light Rain
12:53 PM 70.0 °F 50.0 °F 49% 29.99 in 10.0 mi SSE 3.5 mph - 0.00 in   Overcast
1:53 PM 71.1 °F 48.0 °F 44% 29.96 in 10.0 mi SE 6.9 mph - N/A   Overcast
2:53 PM 70.0 °F 48.0 °F 46% 29.93 in 10.0 mi SE 10.4 mph - N/A   Overcast
3:53 PM 71.1 °F 48.9 °F 45% 29.91 in 10.0 mi SE 9.2 mph - N/A   Overcast
4:53 PM 71.1 °F 48.9 °F 45% 29.91 in 10.0 mi SSE 10.4 mph - 0.00 in   Mostly Cloudy
5:53 PM 70.0 °F 50.0 °F 49% 29.92 in 10.0 mi South 6.9 mph - N/A   Overcast
6:53 PM 68.0 °F 52.0 °F 56% 29.95 in 10.0 mi Calm Calm - N/A   Overcast
7:53 PM 64.0 °F 54.0 °F 70% 29.94 in 10.0 mi SSE 5.8 mph - N/A   Mostly Cloudy
8:53 PM 63.0 °F 57.0 °F 81% 29.97 in 10.0 mi Calm Calm - N/A   Overcast
9:53 PM 64.0 °F 57.0 °F 78% 30.01 in 10.0 mi Calm Calm - N/A   Overcast
10:53 PM 64.0 °F 57.0 °F 78% 30.03 in 10.0 mi NW 12.7 mph - N/A   Overcast
11:53 PM 60.1 °F 55.9 °F 86% 30.05 in 10.0 mi NNW 11.5 mph 20.7 mph N/A   Mostly Cloudy
11:55 PM 60.8 °F 55.4 °F 82% 30.06 in 10.0 mi NNW 9.2 mph 19.6 mph N/A   Mostly Cloudy